This is the latest recevied weather packets stored in our database for station/object KB0Y. If no packets are shown the sender has not sent any weather packets the latest 10 day(s).
| Time | Temp. | Humidity | Pressure | Rain* | Wind** | Luminosity | Snow |
|---|---|---|---|---|---|---|---|
| 1787777443 | 27.22° C | 90% | 1019.6 hPa | 0 mm | - | 59 W/m² | - |
| 1787777142 | 27.78° C | 90% | 1019.6 hPa | 0 mm | - | 58 W/m² | - |
| 1787776841 | 27.78° C | 90% | 1019.6 hPa | 0 mm | - | 58 W/m² | - |
| 1787776540 | 27.78° C | 89% | 1019.6 hPa | 0 mm | - | 58 W/m² | - |
| 1787776238 | 27.78° C | 88% | 1020 hPa | 0 mm | - | 58 W/m² | - |
| 1787775932 | 28.33° C | 89% | 1020 hPa | 0 mm | - | 58 W/m² | - |
| 1787775627 | 28.33° C | 88% | 1020 hPa | 0 mm | - | 58 W/m² | - |
| 1787775326 | 28.33° C | 88% | 1020 hPa | 0 mm | - | 57 W/m² | - |
| 1787775026 | 28.33° C | 88% | 1020.3 hPa | 0 mm | - | 54 W/m² | - |
| 1787774724 | 28.89° C | 87% | 1020.3 hPa | 0 mm | - | 46 W/m² | - |
| 1787774419 | 28.89° C | 87% | 1020.6 hPa | 0 mm | - | 60 W/m² | - |
| 1787774114 | 29.44° C | 87% | 1020.6 hPa | 0 mm | - | 60 W/m² | - |
| 1787773812 | 30° C | 86% | 1020.6 hPa | 0 mm | - | 59 W/m² | - |
| 1787773511 | 30.56° C | 85% | 1020.6 hPa | 0 mm | - | 82 W/m² | - |
| 1787773208 | 30.56° C | 84% | 1020.6 hPa | 0 mm | - | 106 W/m² | - |
| 1787772903 | 30.56° C | 83% | 1020 hPa | 0 mm | - | 128 W/m² | - |
| 1787772598 | 31.11° C | 83% | 1020.3 hPa | 0 mm | - | 181 W/m² | - |
| 1787772297 | 31.11° C | 80% | 1020.3 hPa | 0 mm | - | 375 W/m² | - |
| 1787771996 | 31.11° C | 78% | 1020.3 hPa | 0 mm | - | 670 W/m² | - |
| 1787771691 | 30.56° C | 78% | 1020.3 hPa | 0 mm | - | 682 W/m² | - |
| 1787771390 | 30.56° C | 77% | 1020.3 hPa | 0 mm | - | 378 W/m² | - |
| 1787771084 | 30° C | 77% | 1020.3 hPa | 0 mm | - | 644 W/m² | - |
| 1787770779 | 29.44° C | 77% | 1020 hPa | 0 mm | - | 627 W/m² | - |
| 1787770478 | 28.89° C | 78% | 1019.6 hPa | 0 mm | - | 612 W/m² | - |
| 1787770177 | 28.89° C | 79% | 1020 hPa | 0 mm | - | 602 W/m² | - |
* Rain latest hour (hover to see other rain measurements)
** Current wind speed in m/s (hover to see current wind gust speed)